VOZ1140 YBNA-YSSY

Flight info

Callsign VOZ1140
Flight time 1h 2m
Altitude 32000
Route BNA W494 IDNER H98 SANAD H91 IGDAM H652 BOREE
Aircraft B738/M-SDE2E3FGHIRWXY/LB1

Departure

Time 2026-05-09 03:47
Airport Ballina Byron Gateway Airport (YBNA)

Arrival

Time 2026-05-09 04:50
Airport Sydney Kingsford Smith International Airport (YSSY)
Time Latitude Longitude Altitude Speed Heading
2026-05-09 03:44 -28.83677 153.55609 14 ft 1 kts 280°
2026-05-09 03:45 -28.83665 153.55563 14 ft 13 kts 278°
2026-05-09 03:45 -28.83596 153.55499 14 ft 14 kts 343°
2026-05-09 03:45 -28.83514 153.55456 14 ft 13 kts 297°
2026-05-09 03:45 -28.83540 153.55311 11 ft 22 kts 253°
2026-05-09 03:46 -28.83583 153.55212 13 ft 6 kts 255°
2026-05-09 03:46 -28.83573 153.55208 12 ft 4 kts 40°
2026-05-09 03:46 -28.83564 153.55223 11 ft 0 kts 71°
2026-05-09 03:47 -28.83486 153.55512 13 ft 85 kts 72°
2026-05-09 03:47 -28.83236 153.56472 16 ft 165 kts 72°
2026-05-09 03:47 -28.82876 153.57784 834 ft 171 kts 74°
2026-05-09 03:47 -28.82228 153.58961 1835 ft 185 kts 39°
2026-05-09 03:48 -28.80937 153.59393 2609 ft 215 kts 355°
2026-05-09 03:48 -28.79478 153.58802 3033 ft 237 kts 323°
2026-05-09 03:48 -28.78360 153.57352 3404 ft 252 kts 294°
2026-05-09 03:48 -28.77931 153.55396 3940 ft 259 kts 267°
2026-05-09 03:49 -28.78166 153.53351 4631 ft 268 kts 256°
2026-05-09 03:49 -28.78620 153.51175 5004 ft 295 kts 255°
2026-05-09 03:49 -28.79172 153.48869 5734 ft 305 kts 250°
2026-05-09 03:49 -28.79813 153.46581 6920 ft 294 kts 251°
2026-05-09 03:50 -28.80383 153.44399 8133 ft 286 kts 253°
2026-05-09 03:50 -28.80867 153.42201 8919 ft 292 kts 256°
2026-05-09 03:50 -28.81316 153.39930 9758 ft 295 kts 257°
2026-05-09 03:50 -28.81748 153.37601 10585 ft 298 kts 257°
2026-05-09 03:51 -28.82163 153.35295 11314 ft 303 kts 258°
2026-05-09 03:51 -28.82584 153.32919 12070 ft 307 kts 258°
2026-05-09 03:51 -28.83006 153.30519 12809 ft 311 kts 258°
2026-05-09 03:51 -28.83431 153.28085 13538 ft 316 kts 258°
2026-05-09 03:52 -28.83861 153.25613 14250 ft 319 kts 258°
2026-05-09 03:52 -28.84294 153.23118 14977 ft 321 kts 258°
2026-05-09 03:52 -28.84729 153.20609 15669 ft 324 kts 258°
2026-05-09 03:52 -28.85168 153.18073 16332 ft 328 kts 258°
2026-05-09 03:53 -28.85614 153.15500 16976 ft 332 kts 258°
2026-05-09 03:53 -28.86062 153.12904 17648 ft 335 kts 258°
2026-05-09 03:53 -28.86515 153.10281 18321 ft 338 kts 259°
2026-05-09 03:53 -28.86988 153.07639 18918 ft 341 kts 254°
2026-05-09 03:54 -28.88014 153.05199 19489 ft 344 kts 233°
2026-05-09 03:54 -28.89729 153.03301 20112 ft 347 kts 214°
2026-05-09 03:54 -28.91783 153.01895 20725 ft 349 kts 211°
2026-05-09 03:54 -28.93920 153.00547 21284 ft 353 kts 210°
2026-05-09 03:55 -28.96093 152.99207 21845 ft 356 kts 210°
2026-05-09 03:55 -28.98277 152.97861 22428 ft 358 kts 210°
2026-05-09 03:55 -29.00470 152.96501 23010 ft 360 kts 211°
2026-05-09 03:55 -29.02676 152.95123 23566 ft 362 kts 211°
2026-05-09 03:56 -29.04893 152.93729 24058 ft 365 kts 211°
2026-05-09 03:56 -29.07120 152.92322 24518 ft 367 kts 211°
2026-05-09 03:56 -29.09365 152.90899 24984 ft 369 kts 212°
2026-05-09 03:56 -29.11619 152.89468 25425 ft 372 kts 212°
2026-05-09 03:57 -29.13885 152.88027 25859 ft 374 kts 212°
2026-05-09 03:57 -29.16170 152.86573 26293 ft 376 kts 212°
2026-05-09 03:57 -29.18469 152.85109 26727 ft 379 kts 212°
2026-05-09 03:57 -29.20778 152.83637 27145 ft 381 kts 212°
2026-05-09 03:58 -29.23072 152.82174 27544 ft 383 kts 212°
2026-05-09 03:58 -29.25410 152.80683 27940 ft 386 kts 212°
2026-05-09 03:58 -29.27768 152.79178 28333 ft 389 kts 212°
2026-05-09 03:58 -29.30142 152.77661 28730 ft 391 kts 212°
2026-05-09 03:59 -29.32526 152.76138 29115 ft 393 kts 213°
2026-05-09 03:59 -29.34930 152.74600 29495 ft 396 kts 213°
2026-05-09 03:59 -29.37343 152.73057 29864 ft 398 kts 213°
2026-05-09 03:59 -29.39770 152.71504 30233 ft 400 kts 213°
2026-05-09 04:00 -29.42214 152.69939 30534 ft 402 kts 213°
2026-05-09 04:00 -29.44631 152.68390 30855 ft 403 kts 213°
2026-05-09 04:00 -29.47112 152.66799 31202 ft 404 kts 213°
2026-05-09 04:00 -29.49538 152.65244 31524 ft 404 kts 214°
2026-05-09 04:01 -29.51998 152.63665 31815 ft 406 kts 214°
2026-05-09 04:01 -29.54465 152.62081 32094 ft 407 kts 214°
2026-05-09 04:01 -29.56939 152.60491 32232 ft 410 kts 214°
2026-05-09 04:01 -29.59449 152.58875 32237 ft 416 kts 214°
2026-05-09 04:02 -29.64580 152.55568 32244 ft 428 kts 214°
2026-05-09 04:02 -29.69839 152.52181 32241 ft 438 kts 213°
2026-05-09 04:03 -29.75216 152.48713 32241 ft 447 kts 213°
2026-05-09 04:03 -29.80660 152.45200 32231 ft 449 kts 213°
2026-05-09 04:04 -29.86108 152.41680 32236 ft 450 kts 213°
2026-05-09 04:04 -29.91564 152.38149 32232 ft 449 kts 213°
2026-05-09 04:05 -29.96094 152.35213 32230 ft 449 kts 213°
2026-05-09 04:05 -30.01535 152.31683 32249 ft 448 kts 213°
2026-05-09 04:06 -30.06955 152.28161 32236 ft 447 kts 213°
2026-05-09 04:06 -30.12373 152.24636 32239 ft 446 kts 213°
2026-05-09 04:07 -30.17752 152.21132 32233 ft 446 kts 213°
2026-05-09 04:07 -30.23156 152.17607 32237 ft 446 kts 213°
2026-05-09 04:08 -30.28565 152.14074 32232 ft 445 kts 213°
2026-05-09 04:08 -30.33963 152.10544 32237 ft 445 kts 213°
2026-05-09 04:09 -30.39360 152.07009 32231 ft 446 kts 213°
2026-05-09 04:09 -30.44757 152.03471 32237 ft 446 kts 213°
2026-05-09 04:10 -30.50152 151.99930 32228 ft 446 kts 213°
2026-05-09 04:10 -30.55525 151.96397 32237 ft 447 kts 213°
2026-05-09 04:11 -30.60942 151.92833 32231 ft 447 kts 213°
2026-05-09 04:11 -30.66369 151.89256 32228 ft 448 kts 212°
2026-05-09 04:12 -30.71799 151.85673 32222 ft 449 kts 212°
2026-05-09 04:12 -30.77232 151.82084 32226 ft 449 kts 212°
2026-05-09 04:13 -30.82665 151.78489 32234 ft 449 kts 212°
2026-05-09 04:13 -30.88087 151.74897 32231 ft 449 kts 212°
2026-05-09 04:14 -30.93513 151.71297 32232 ft 449 kts 212°
2026-05-09 04:14 -30.98941 151.67692 32228 ft 448 kts 212°
2026-05-09 04:15 -31.04325 151.64111 32224 ft 448 kts 212°
2026-05-09 04:15 -31.09751 151.60498 32230 ft 448 kts 212°
2026-05-09 04:16 -31.15163 151.56888 32223 ft 448 kts 212°
2026-05-09 04:16 -31.20571 151.53277 32228 ft 448 kts 212°
2026-05-09 04:17 -31.25981 151.49659 32222 ft 448 kts 212°
2026-05-09 04:17 -31.31389 151.46038 32228 ft 448 kts 212°
2026-05-09 04:18 -31.36793 151.42415 32228 ft 448 kts 212°
2026-05-09 04:18 -31.42470 151.39350 32235 ft 451 kts 203°
2026-05-09 04:19 -31.48321 151.36804 32228 ft 451 kts 203°
2026-05-09 04:19 -31.54219 151.34229 32231 ft 451 kts 203°
2026-05-09 04:20 -31.60093 151.31619 32223 ft 452 kts 203°
2026-05-09 04:20 -31.65962 151.28991 32239 ft 452 kts 203°
2026-05-09 04:21 -31.71839 151.26356 32230 ft 452 kts 203°
2026-05-09 04:22 -31.80553 151.22446 32217 ft 428 kts 203°
2026-05-09 04:22 -31.83281 151.21222 32217 ft 415 kts 203°
2026-05-09 04:22 -31.85979 151.20008 32236 ft 413 kts 203°
2026-05-09 04:22 -31.88661 151.18798 32135 ft 414 kts 203°
2026-05-09 04:23 -31.91348 151.17586 31795 ft 411 kts 203°
2026-05-09 04:23 -31.94004 151.16390 31386 ft 407 kts 202°
2026-05-09 04:23 -31.96636 151.15208 31007 ft 404 kts 202°
2026-05-09 04:23 -31.99256 151.14034 30613 ft 401 kts 202°
2026-05-09 04:24 -32.01851 151.12872 30197 ft 398 kts 202°
2026-05-09 04:24 -32.04431 151.11717 29735 ft 395 kts 202°
2026-05-09 04:24 -32.06955 151.10585 29322 ft 391 kts 202°
2026-05-09 04:24 -32.09489 151.09447 28893 ft 387 kts 202°
2026-05-09 04:25 -32.11995 151.08321 28494 ft 383 kts 202°
2026-05-09 04:25 -32.14482 151.07203 28077 ft 380 kts 202°
2026-05-09 04:25 -32.16948 151.06093 27680 ft 377 kts 202°
2026-05-09 04:25 -32.19385 151.04996 27284 ft 374 kts 202°
2026-05-09 04:26 -32.21808 151.03904 26891 ft 371 kts 202°
2026-05-09 04:26 -32.24216 151.02819 26501 ft 369 kts 202°
2026-05-09 04:26 -32.26603 151.01742 26121 ft 367 kts 202°
2026-05-09 04:26 -32.28980 151.00669 25737 ft 365 kts 202°
2026-05-09 04:27 -32.31346 150.99601 25351 ft 363 kts 202°
2026-05-09 04:27 -32.33701 150.98536 24970 ft 361 kts 202°
2026-05-09 04:27 -32.36039 150.97480 24590 ft 359 kts 202°
2026-05-09 04:27 -32.38371 150.96425 24205 ft 358 kts 202°
2026-05-09 04:28 -32.40694 150.95373 23808 ft 357 kts 202°
2026-05-09 04:28 -32.43005 150.94327 23372 ft 355 kts 202°
2026-05-09 04:28 -32.45307 150.93285 22961 ft 353 kts 202°
2026-05-09 04:28 -32.47575 150.92290 22563 ft 351 kts 198°
2026-05-09 04:29 -32.49994 150.91719 22166 ft 350 kts 188°
2026-05-09 04:29 -32.52423 150.91631 21791 ft 350 kts 178°
2026-05-09 04:29 -32.54833 150.91988 21441 ft 348 kts 174°
2026-05-09 04:29 -32.57218 150.92433 21061 ft 346 kts 174°
2026-05-09 04:30 -32.59560 150.92884 20688 ft 344 kts 174°
2026-05-09 04:30 -32.61950 150.93339 20314 ft 342 kts 174°
2026-05-09 04:30 -32.64294 150.93775 19972 ft 340 kts 174°
2026-05-09 04:30 -32.66631 150.94202 19605 ft 339 kts 174°
2026-05-09 04:31 -32.68924 150.94618 19242 ft 338 kts 174°
2026-05-09 04:31 -32.71246 150.95037 18878 ft 337 kts 175°
2026-05-09 04:31 -32.73562 150.95455 18486 ft 337 kts 175°
2026-05-09 04:31 -32.75871 150.95871 18080 ft 335 kts 175°
2026-05-09 04:32 -32.78170 150.96286 17700 ft 333 kts 175°
2026-05-09 04:32 -32.80458 150.96697 17328 ft 331 kts 175°
2026-05-09 04:32 -32.82723 150.97099 16973 ft 329 kts 175°
2026-05-09 04:32 -32.84980 150.97499 16608 ft 327 kts 175°
2026-05-09 04:33 -32.87223 150.97897 16242 ft 325 kts 175°
2026-05-09 04:33 -32.89451 150.98292 15897 ft 322 kts 175°
2026-05-09 04:33 -32.91665 150.98685 15560 ft 320 kts 175°
2026-05-09 04:33 -32.93865 150.99076 15210 ft 319 kts 175°
2026-05-09 04:34 -32.96047 150.99464 14865 ft 317 kts 175°
2026-05-09 04:34 -32.98223 150.99851 14519 ft 315 kts 175°
2026-05-09 04:34 -33.00389 151.00237 14176 ft 314 kts 175°
2026-05-09 04:34 -33.02549 151.00621 13798 ft 313 kts 175°
2026-05-09 04:35 -33.04694 151.01003 13426 ft 311 kts 175°
2026-05-09 04:35 -33.06828 151.01383 13067 ft 309 kts 175°
2026-05-09 04:35 -33.08948 151.01763 12724 ft 306 kts 175°
2026-05-09 04:35 -33.11046 151.02137 12378 ft 304 kts 175°
2026-05-09 04:36 -33.13135 151.02508 12039 ft 302 kts 175°
2026-05-09 04:36 -33.15206 151.02876 11700 ft 300 kts 175°
2026-05-09 04:36 -33.17262 151.03244 11368 ft 298 kts 175°
2026-05-09 04:36 -33.19311 151.03610 11035 ft 297 kts 175°
2026-05-09 04:37 -33.21353 151.03975 10708 ft 295 kts 175°
2026-05-09 04:37 -33.23351 151.04332 10386 ft 294 kts 174°
2026-05-09 04:37 -33.25346 151.04707 10237 ft 287 kts 174°
2026-05-09 04:37 -33.27312 151.05087 10093 ft 279 kts 174°
2026-05-09 04:38 -33.29203 151.05451 9907 ft 273 kts 174°
2026-05-09 04:38 -33.31069 151.05808 9599 ft 271 kts 174°
2026-05-09 04:38 -33.32923 151.06164 9310 ft 269 kts 174°
2026-05-09 04:38 -33.34740 151.06511 9015 ft 267 kts 174°
2026-05-09 04:39 -33.36568 151.06861 8744 ft 266 kts 173°
2026-05-09 04:39 -33.38401 151.07211 8440 ft 266 kts 173°
2026-05-09 04:39 -33.40225 151.07561 8150 ft 265 kts 173°
2026-05-09 04:39 -33.42041 151.07910 7860 ft 264 kts 173°
2026-05-09 04:40 -33.43854 151.08257 7578 ft 264 kts 173°
2026-05-09 04:40 -33.45667 151.08606 7295 ft 263 kts 173°
2026-05-09 04:40 -33.47477 151.08953 7003 ft 263 kts 173°
2026-05-09 04:40 -33.49269 151.09298 6731 ft 258 kts 173°
2026-05-09 04:41 -33.51014 151.09635 6452 ft 251 kts 173°
2026-05-09 04:41 -33.52738 151.09966 6167 ft 251 kts 173°
2026-05-09 04:41 -33.54461 151.10213 5895 ft 248 kts 176°
2026-05-09 04:41 -33.56170 151.10395 5616 ft 245 kts 177°
2026-05-09 04:42 -33.57856 151.10568 5363 ft 240 kts 177°
2026-05-09 04:42 -33.59499 151.10741 5183 ft 233 kts 177°
2026-05-09 04:42 -33.61076 151.10910 5072 ft 222 kts 177°
2026-05-09 04:42 -33.62569 151.11074 4980 ft 214 kts 178°
2026-05-09 04:43 -33.64043 151.11236 4883 ft 213 kts 178°
2026-05-09 04:43 -33.65523 151.11398 4827 ft 215 kts 178°
2026-05-09 04:43 -33.67006 151.11561 4650 ft 213 kts 177°
2026-05-09 04:43 -33.68459 151.11728 4413 ft 205 kts 178°
2026-05-09 04:44 -33.69842 151.11887 4162 ft 195 kts 178°
2026-05-09 04:44 -33.71154 151.12034 3948 ft 184 kts 179°
2026-05-09 04:44 -33.72395 151.12174 3773 ft 176 kts 179°
2026-05-09 04:44 -33.73607 151.12311 3556 ft 173 kts 178°
2026-05-09 04:45 -33.74784 151.12498 3355 ft 169 kts 176°
2026-05-09 04:45 -33.75942 151.12745 3201 ft 170 kts 173°
2026-05-09 04:45 -33.77117 151.13040 3042 ft 171 kts 173°
2026-05-09 04:45 -33.78244 151.13331 3026 ft 161 kts 173°
2026-05-09 04:46 -33.79359 151.13621 2905 ft 162 kts 172°
2026-05-09 04:46 -33.80424 151.13901 2683 ft 147 kts 173°
2026-05-09 04:46 -33.81399 151.14155 2477 ft 140 kts 174°
2026-05-09 04:46 -33.82336 151.14398 2322 ft 137 kts 174°
2026-05-09 04:47 -33.83299 151.14647 2137 ft 139 kts 175°
2026-05-09 04:47 -33.84247 151.14895 1918 ft 140 kts 174°
2026-05-09 04:47 -33.84888 151.15062 1826 ft 140 kts 175°
2026-05-09 04:47 -33.86148 151.15393 1555 ft 139 kts 173°
2026-05-09 04:48 -33.87093 151.15652 1405 ft 144 kts 176°
2026-05-09 04:48 -33.88087 151.15899 1223 ft 146 kts 175°
2026-05-09 04:48 -33.88744 151.16074 1014 ft 141 kts 173°
2026-05-09 04:48 -33.89664 151.16310 733 ft 131 kts 169°
2026-05-09 04:49 -33.90544 151.16545 559 ft 132 kts 170°
2026-05-09 04:49 -33.91447 151.16774 400 ft 135 kts 168°
2026-05-09 04:49 -33.92356 151.17010 176 ft 130 kts 168°
2026-05-09 04:49 -33.93233 151.17239 37 ft 127 kts 167°
2026-05-09 04:50 -33.94001 151.17436 27 ft 92 kts 167°
2026-05-09 04:50 -33.94359 151.17579 29 ft 39 kts 149°
2026-05-09 04:50 -33.94499 151.17699 29 ft 14 kts 135°
2026-05-09 04:50 -33.94516 151.17735 29 ft 0 kts 104°
2026-05-09 04:51 -33.94517 151.17739 29 ft 0 kts 103°
2026-05-09 04:52 -33.94495 151.17771 29 ft 14 kts 21°
2026-05-09 04:52 -33.94361 151.17743 29 ft 26 kts 346°
2026-05-09 04:52 -33.94181 151.17688 28 ft 20 kts 344°
2026-05-09 04:52 -33.94061 151.17652 27 ft 18 kts 346°
2026-05-09 04:53 -33.93947 151.17623 28 ft 16 kts 346°
2026-05-09 04:53 -33.93868 151.17664 28 ft 14 kts 70°
2026-05-09 04:53 -33.93842 151.17770 29 ft 13 kts 73°
2026-05-09 04:53 -33.93814 151.17879 29 ft 16 kts 73°
2026-05-09 04:54 -33.93782 151.18020 29 ft 17 kts 72°
2026-05-09 04:54 -33.93697 151.18054 29 ft 10 kts 349°
2026-05-09 04:54 -33.93643 151.18037 29 ft 7 kts 305°
2026-05-09 04:54 -33.93639 151.18007 29 ft 2 kts 279°
2026-05-09 04:55 -33.93636 151.17990 29 ft 2 kts 280°
2026-05-09 04:55 -33.93636 151.17987 29 ft 0 kts 279°